Sheridan, WY

12:21 AM MDT on September 20, 2014 (GMT -0600)
North Airport Area | Change Station
CLOSE
Current Station
Personal Weather Station
Location: Sheridan, WY
Elevation: 3917 ft
Nearby Weather Stations

Elev 3917 ft 44.78 °N, 106.97 °W | Updated 9 minutes ago

Clear
Clear
51.6 °F
Feels Like 51.6 °F
N
0.0
Wind Variable Wind from SSW

Today
High -- | Low -- °F
--% Chance of Precip.
Yesterday
High -- | Low -- °F
Precip. -- in
6:52 AM 7:09 PM
Waning Crescent, 14% visible
Pressure 29.98 in
Visibility 10.0 miles
Clouds Clear
Dew Point 46 °F
Humidity 82%
Rainfall 0.00 in
Snow Depth Not available.
UV 0 out of 12
Pollen 5.40 out of 12
Air Quality Not available.
Flu Activity Not available.
METAR KSHR 200553Z AUTO 19003KT 10SM CLR 13/08 A3006 RMK AO2 SLP151 T01280078 10217 20117 51011

More Conditions Fewer Conditions

Pressure 29.98 in
Visibility 10.0 miles
Clouds Clear
Dew Point 46 °F
Humidity 82%
Rainfall 0.00 in
Snow Depth Not available.
UV 0 out of 12
Pollen 5.40 out of 12
Air Quality Not available.
Flu Activity Not available.
METAR KSHR 200553Z AUTO 19003KT 10SM CLR 13/08 A3006 RMK AO2 SLP151 T01280078 10217 20117 51011

More Conditions Fewer Conditions

10-Day Weather Forecast

Almanac

Astronomy

Sep. 20, 2014 Rise Set
Actual Time 6:52 AM MDT 7:09 PM MDT
Civil Twilight 6:23 AM MDT 7:38 PM MDT
Nautical Twilight 5:48 AM MDT 8:12 PM MDT
Astronomical Twilight 5:13 AM MDT 8:47 PM MDT
Moon 3:27 AM MDT 5:19 PM MDT
Length of Visible Light 13h 14m
Length of Day
12h 16m
Tomorrow will be 3m 6s shorter.
Waning Crescent, 14% of the Moon is Illuminated
Today
Waning Crescent
Sep 24
New
Oct 1
First Quarter
Oct 8
Full
Oct 15
Last Quarter

Today's Extremes

State Highs State Lows

Community

WunderPhotos

Upload Photos

1,754,779 photos uploaded!

WunderBlogs® & News

Nearby

Snow Depth

Station Depth Elevation
Phillips Bench 0 in 8200 ft
Gros Ventre Summit 1 in 8750 ft
Reno Hill 0 in 8500 ft
Gunsight Pass 0 in 9820 ft
East Rim Divide 0 in 7930 ft

Earthquake Activity

City Distance Mag. Time & Date
No recent earthquake activity has been reported nearby.
Minimum magnitude displayed is 2.5.

Coastal Water Temperatures

Place Temperature
No Stations Reporting

Nearby Weather Stations